Погода в Мыёлдине

Россия / Республика Коми     61°46′03″N   54°53′48″E
темп.,
°C
ветер,
м/с
пор.,
м/с
влажн.,
%
обл.,
%
осадки,
мм/ч
давл.,
гПа
погр.,
м
28 сентября, вт
вт2800:00+1всв118191 0.0 103312
03:000в0086100 0.0 103310
06:00+1ссз1181100 0.0 103219
09:00+5ссз1265100 0.0 1032348
12:00+6зсз2258100 0.0 1031740
15:00+7ссз235794 0.0 10301001
18:00+4с127993 0.0 103028
21:00+4ссз1180100 0.0 103026
29 сентября, ср
ср2900:00+4сз1389100 0.0 1030103
03:00+4ссз1395100 0.1 1030152
06:00+4с1496100 0.0 1030172
09:00+6с2485100 0.0 1030480
12:00+7с2478100 0.1 1029714
15:00+8с247472 0.3 1029722
18:00+5ссз129099 0.0 102921
21:00+4зсз1192100 0.0 102824
30 сентября, чт
чт3000:00+5з248999 0.0 1027111
03:00+5зюз3791100 0.2 1026284
06:00+5зюз389297 0.0 1024379
09:00+7сз2589100 0.0 1023471
12:00+8ссз3685100 0.0 1024588
15:00+8ссз378397 0.1 1024724
18:00+7ссз398899 0.0 1024529
21:00+6с378896 0.1 1025475
1 октября, пт
пт100:00+3ссз269783 0.0 1026164
03:00+2с2697100 0.0 1027192
06:00+1ссз259094 0.0 1027171
09:00+4с246465 0.0 1028461
12:00+6ссз2453100 0.0 1028740
15:00+7ссз24555 0.0 1028806
18:00+2сз227622 0.0 102814
21:00+1сз118232 0.0 102810
2 октября, сб
сб200:000зсз1184100 0.0 102810
03:00+2з1173100 0.0 102837
06:00+3зюз1173100 0.0 102818
09:00+4зюз1281100 0.0 102890
12:00+6з1388100 0.0 1028184
15:00+6зюз1192100 0.0 102857
18:00+6зюз1189100 0.0 102910
21:00+6зсз23899 0.0 102967